Location: Unspecified
(38.9820°N, 94.4650°W)
Time: 04:47:42
(UTC-05:00)

N. Korean satellite - Visible Passes

Search period start: 20 March 2019 00:00
Search period end: 30 March 2019 00:00
Orbit: 455 x 510 km, 97.2° (Epoch: 19 March)

Date Brightness Start Highest point End Pass type
(mag) Time Alt. Az. Time Alt. Az. Time Alt. Az.
20 Mar 9.3 06:49:49 10° NE 06:52:47 25° E 06:55:45 10° SSE visible
21 Mar 10.1 06:26:21 10° ENE 06:27:49 12° E 06:29:18 10° ESE visible
24 Mar 9.6 06:44:06 10° NE 06:46:54 21° E 06:49:43 10° SSE visible
25 Mar 10.5 06:21:15 10° E 06:21:55 10° E 06:22:35 10° ESE visible
28 Mar 9.8 06:38:23 10° NE 06:40:58 18° E 06:43:34 10° SE visible
